This is the latest recevied weather packets stored in our database for station/object WB7AAV. If no packets are shown the sender has not sent any weather packets the latest 10 day(s).
| Time | Temp. | Humidity | Pressure | Rain* | Wind** | Luminosity | Snow |
|---|---|---|---|---|---|---|---|
| 1778111493 | 4.44° C | 69% | 1018.2 hPa | 1.52 mm | - | - | - |
| 1778111374 | 3.89° C | 69% | 1018.2 hPa | 1.78 mm | - | - | - |
| 1778111252 | 3.89° C | 71% | 1018.2 hPa | 1.78 mm | - | - | - |
| 1778111132 | 3.89° C | 71% | 1018.2 hPa | 1.78 mm | - | - | - |
| 1778111012 | 3.33° C | 71% | 1018.2 hPa | 2.03 mm | - | - | - |
| 1778110892 | 3.89° C | 72% | 1018.2 hPa | 1.78 mm | - | - | - |
| 1778110773 | 3.33° C | 72% | 1018.2 hPa | 1.78 mm | - | - | - |
| 1778110652 | 3.33° C | 72% | 1018.3 hPa | 1.78 mm | - | - | - |
| 1778110533 | 3.33° C | 71% | 1018.3 hPa | 2.03 mm | - | - | - |
| 1778110414 | 3.33° C | 70% | 1018.3 hPa | 2.03 mm | - | - | - |
| 1778110290 | 3.33° C | 70% | 1018.3 hPa | 2.03 mm | - | - | - |
| 1778110172 | 3.33° C | 70% | 1018.3 hPa | 2.03 mm | - | - | - |
| 1778110051 | 3.33° C | 70% | 1018.4 hPa | 2.03 mm | - | - | - |
| 1778109930 | 3.89° C | 69% | 1018.4 hPa | 2.03 mm | - | - | - |
| 1778109860 | 3.89° C | 68% | 1018.4 hPa | 2.03 mm | - | - | - |
| 1778109692 | 3.89° C | 68% | 1018.4 hPa | 2.03 mm | - | - | - |
| 1778109570 | 4.44° C | 68% | 1018.4 hPa | 2.03 mm | - | - | - |
| 1778109450 | 4.44° C | 69% | 1018.6 hPa | 2.03 mm | - | - | - |
| 1778109330 | 4.44° C | 70% | 1018.4 hPa | 2.03 mm | - | - | - |
| 1778109092 | 3.89° C | 77% | 1018.4 hPa | 2.03 mm | - | - | - |
| 1778108970 | 3.33° C | 71% | 1018.4 hPa | 2.03 mm | - | - | - |
| 1778108850 | 3.33° C | 71% | 1018.3 hPa | 2.03 mm | - | - | - |
| 1778108729 | 3.33° C | 71% | 1018.3 hPa | 2.29 mm | - | - | - |
| 1778108607 | 3.33° C | 72% | 1018.3 hPa | 2.03 mm | - | - | - |
| 1778108487 | 3.33° C | 72% | 1018.3 hPa | 2.03 mm | - | - | - |
* Rain latest hour (hover to see other rain measurements)
** Current wind speed in m/s (hover to see current wind gust speed)